EXACTVIEW-1 (ADS-1B)

Last updated on Mon Sep 21 2026 00:02:45 GMT+0000 (Coordinated Universal Time)

1 38709U 12039C 26263.59279863 .00000057 00000+0 44399-4 0 9994 2 38709 98.9879 23.1854 0009895 255.2364 104.7718 14.25007055736294
UTC large
Height (km)
Speed (km/s)
/
Latitude / Longitude
Inclination (degrees)
Orbital Period (minutes)
Azimuth
Elevation
Range (km)
Doppler Factor

Next 0 passes for location: London (51.5072 / 0.1276)

No passes found over London.
EXACTVIEW-1 (ADS-1B)